Tracking 22130 objects as of 21-Jan-2021
HD Live streaming from Space Station
objects crossing your sky now

STARLINK-1919

Track STARLINK-1919 now!
10-day predictions
STARLINK-1919 is classified as:


NORAD ID: 46769
Int'l Code: 2020-074AG
Perigee: 553.4 km
Apogee: 555.5 km
Inclination: 53.1 °
Period: 95.6 minutes
Semi major axis: 6925 km
RCS: Unknown
Launch date: October 24, 2020
Source: United States (US)
Launch site: AIR FORCE EASTERN TEST RANGE (AFETR)
aabbcc
Your satellite tracking list
Your tracking list is empty




NASA's NSSDC Master Catalog

Two Line Element Set (TLE):
1 46769U 20074AG  21021.58335648  .00012432  00000-0  85267-3 0  9996
2 46769  53.0550 105.3124 0001512  81.0241 268.7288 15.06372649  1750
Source of the keplerian elements: AFSPC